Regional Weather Roundup
Issued by NWS Upton, NY

Current Version | Previous Version | Text Only | Print | Product List | Glossary On
Versions: 1 2 3 4 5 6 7 8 9 10 11 12 13 14 15 16 17 18 19 20 21 22 23 24 25 26 27
000
ASUS41 KOKX 191308
RWROKX

REGIONAL WEATHER ROUNDUP
NATIONAL WEATHER SERVICE NEW YORK NY
900 AM EDT SAT AUG 19 2017

NOTE: "FAIR" INDICATES FEW OR NO CLOUDS BELOW 12,000 FEET WITH NO
SIGNIFICANT WEATHER AND/OR OBSTRUCTIONS TO VISIBILITY.

NYZ071-072-176-178-NJZ106-104-191400-
NEW YORK CITY METRO AREA

CITY           SKY/WX    TMP DP  RH WIND       PRES   REMARKS
Central Park   SUNNY     77  69  76 CALM      29.88R
Bronx Bot Gard   N/A     77  66  69 NE3       29.87R
LaGuardia APRT MOSUNNY   79  67  66 NW8       29.84R
Kennedy INTL   PTSUNNY   77  69  76 N12       29.85R
Breezy Point     N/A     73 N/A N/A SW3         N/A
Newark/Liberty PTSUNNY   81  70  69 VRB6      29.84R
Teterboro      SUNNY     80  69  69 N5        29.83R
$$

NYZ177-179-078>081-191400-
LONG ISLAND NEW YORK

CITY           SKY/WX    TMP DP  RH WIND       PRES   REMARKS
Jones Beach      N/A     77 N/A N/A N5          N/A
Matinecock PT    N/A     75 N/A N/A SW3         N/A
Farmingdale    MOSUNNY   80  71  74 N8        29.85R
MacArthur/ISP  CLOUDY    79  73  82 NW7       29.84R
Shirley        CLOUDY    79  73  82 N3        29.84R
Mt Sinai Harb    N/A     79 N/A N/A CALM        N/A
Westhampton    MOSUNNY   79  72  79 NW9       29.85R
East Hampton   FAIR      75  72  90 NW5       29.83R
Montauk          N/A     75  72  90 W7        29.83S
$$

NYZ052-065-067-191400-
HUDSON VALLEY

CITY           SKY/WX    TMP DP  RH WIND       PRES   REMARKS
White Plains   SUNNY     78  68  71 NW7       29.85R
Larchmont Harb   N/A     77 N/A N/A NW5         N/A
Croton On Huds   N/A     82 N/A N/A NW2         N/A
Newburgh       MOSUNNY   73  72  94 W7        29.86S
Montgomery     SUNNY     75  69  81 W5        29.85R
Poughkeepsie   PTSUNNY   74  70  87 SW3       29.84R
Albany         MOSUNNY   75  65  70 VRB3      29.83S
$$

NJZ001-105-106-008-010-013-015-019>022-104-191400-
NEW JERSEY

CITY           SKY/WX    TMP DP  RH WIND       PRES   REMARKS
Newark/Liberty PTSUNNY   81  70  69 VRB6      29.84R
Teterboro      SUNNY     80  69  69 N5        29.83R
Caldwell       SUNNY     77  70  79 CALM      29.85R
Somerville     MOSUNNY   79  72  79 VRB6      29.83S
Linden         FAIR      78  72  82 CALM      29.84R
Perth Amboy      N/A     77 N/A N/A NW5         N/A
Sussex         SUNNY     72  71  97 CALM      29.86S
Andover          N/A     74  69  85 CALM      29.87R
Trenton        MOSUNNY   78  71  79 NW3       29.86R
Millville      PTSUNNY   82  76  81 VRB5      29.87R
Atlantic City  PTSUNNY   78  74  87 VRB5      29.87R
Wrightstown    SUNNY     79  73  80 N5        29.84R
Toms River     MOSUNNY   78  74  87 VRB6      29.87R
Belmar         PTSUNNY   76  73  91 NW6       29.87R
$$

PAZ047>061-062-071-191400-
EASTERN PENNSYLVANIA

CITY           SKY/WX    TMP DP  RH WIND       PRES   REMARKS
Philadelphia   MOSUNNY   79  68  69 NW10      29.87R
Allentown      SUNNY     76  67  73 MISG      29.87R
Scranton       SUNNY     74  65  73 W7        29.89S
$$

CTZ002-004>006-009-010-012-RIZ004-006-007-MAZ004-011-015-191400-
SOUTHERN NEW ENGLAND
 IN CT

CITY           SKY/WX    TMP DP  RH WIND       PRES   REMARKS
Bradley INTL   MOSUNNY   76  67  73 N5        29.83R
Hartford       CLOUDY    78  67  68 N5        29.83R
Danbury        MOSUNNY   77  71  82 NW3       29.86R
Wtrbury/Oxford SUNNY     74  67  78 N5        29.87R
Norwalk Harbor   N/A     73 N/A N/A SW2         N/A
Bridgeport     MOSUNNY   78  71  79 CALM      29.83R
Meriden        MOSUNNY   77  67  71 NW5       29.83R
New Haven      MOSUNNY   77  70  79 NW6       29.84R
Chester        FAIR      79  68  69 N5        29.85R
Groton         MOSUNNY   78  71  79 W7        29.81S
Wilimantic     SUNNY     77  70  79 W3        29.83R

 IN RI

CITY           SKY/WX    TMP DP  RH WIND       PRES   REMARKS
Providence     PTSUNNY   80  74  81 NW8       29.81R
Block Island   FOG       71  70  96 W10       29.82S VSB 1/4
Westerly       SUNNY     79  74  84 W6        29.82
 IN MA

CITY           SKY/WX    TMP DP  RH WIND       PRES   REMARKS
Boston         CLOUDY    67  66  97 VRB3      29.81S
Worcester      FOG       69  68  96 CALM      29.85R VSB 1/4
Westfield      MOSUNNY   77  68  73 NW6       29.83R
Provincetown   FOG       67  67 100 NW9       29.81R VSB 1/4
Nantucket      CLOUDY    71  71 100 SW13      29.81S FOG
$$

ANZ330-335-338-340-345-350-353-355-191400-
COASTAL MARINE OBSERVATIONS


STATION/POSITION TIME  SKY/WX   TEMP    WIND        PRES    VSBY  WAVE
                                AIR SEA DIR/SP/G                  HT/PER
                 (UTC)          (F)     (DEG/KT/KT) (MB)    (MI)  (FT/S)
NY HARB ENTRANCE 1150            75 75  290/ 10/ 12 1009.5          3/ 6
GREAT SOUTH BAY  1230            76 78  310/  4/  6   N/A
23 SSW MONTAUK P 1150            72 71              1009.7          4/ 7
15 E BARNEGAT LI 1230               76                N/A           3/ 6
HUDSON CANYON    1150            75 74  290/ 12/ 16 1009.9          4/ 6
KINGS POINT      1230            77 74   CALM  /  2 1010.3
EXECUTION ROCKS  NOT AVBL
WESTERN LI SOUND NOT AVBL
CENTRAL LI SOUND NOT AVBL
EASTERN LI SOUND NOT AVBL
ROBBINS REEF     1230                   250/  3/  4 1011.1
$$


>>>>>>>>>>>>>>>>>>>>>>>>>>>> KEY <<<<<<<<<<<<<<<<<<<<<<<<<<<
>                                                          <
>     SKY/WX - Sky Condition/Present Weather               <
>     TMP    - Temperature in Fahrenheit                   <
>     DP     - Dew Point in Fahrenheit                     <
>     RH     - Relative Humidity in Percent                <
>     WIND   - Direction (from) and Speed in MPH           <
>     PRES   - Mean Sea Level Pressure (inches of Hg)      <
>     WCI    - Wind Chill Index                            <
>     VSB    - VISIBILITY IN MILES                         <
>     HX     - HEAT INDEX                                  <
>     TC     - TEMPERATURE IN CELSIUS                      <
>     VRB    - VARIABLE WIND DIRECTION                     <
>                                                          <
>>>>>>>>>>>>>>>>>>>>>>>>>>>> KEY <<<<<<<<<<<<<<<<<<<<<<<<<<<




USA.gov is the U.S. government's official web portal to all federal, state and local government web resources and services.